STARLINK-11462 [DTC]

Last updated on Thu Jan 23 2025 00:02:04 GMT+0000 (Coordinated Universal Time)

1 62412U 24249D 25022.49538571 .00004399 00000+0 28123-4 0 9993 2 62412 42.9972 127.7172 0001448 228.0710 132.0037 15.77862915 4791
UTC large
Height (km)
Speed (km/s)
/
Latitude / Longitude
Inclination (degrees)
Orbital Period (minutes)
Azimuth
Elevation
Range (km)
Doppler Factor

Next 0 passes for location: London (51.5072 / 0.1276)

Sorry there are no passes over London.